Stations météo

Publicité
Geneve-Cointrin, Suisse (6700): Température de l'air & dewpoint: 14.04.2019 14:00:00 - 20.04.2019 14:00:00 (CEST)Geneve-Cointrin, Suisse (6700): Température de l'air 5cm: 14.04.2019 14:00:00 - 20.04.2019 14:00:00 (CEST)Geneve-Cointrin, Suisse (6700): Vitesse du vent & gusts: 14.04.2019 14:00:00 - 20.04.2019 14:00:00 (CEST)Geneve-Cointrin, Suisse (6700): Direction du vent: 14.04.2019 14:00:00 - 20.04.2019 14:00:00 (CEST)Geneve-Cointrin, Suisse (6700): reduced air pressure: 14.04.2019 14:00:00 - 20.04.2019 14:00:00 (CEST)Geneve-Cointrin, Suisse (6700): visibility: 14.04.2019 14:00:00 - 20.04.2019 14:00:00 (CEST)Geneve-Cointrin, Suisse (6700): Ensoleillement: 14.04.2019 14:00:00 - 20.04.2019 14:00:00 (CEST)Geneve-Cointrin, Suisse (6700): Quantités de précipitations: 14.04.2019 14:00:00 - 20.04.2019 14:00:00 (CEST)
Date & Time tt [°C] td [°C] tt 5cm [°C] ff [km/h] ff [knt] fx [km/h] fx [knt] dd ppp [hPa] vv [km] sd [min] rr [mm]
20.04.2019 14:00:00 20,4 4,8 26,1 15 8 29 15 NE 1022,8 45 60 0,0
20.04.2019 13:00:00 19,0 5,1 25,7 14 7 22 12 NE 1023,6 - 60 0,0
20.04.2019 12:00:00 18,1 5,3 23,5 16 9 24 13 ENE 1024,2 - 60 0,0
20.04.2019 11:00:00 16,6 5,3 22,2 12 6 21 11 ENE 1024,8 40 60 0,0
20.04.2019 10:00:00 15,4 6,0 21,2 7 4 12 6 E 1025,2 - 60 0,0
20.04.2019 09:00:00 13,3 6,5 17,9 2 1 6 4 W 1025,9 - 60 0,0
20.04.2019 08:00:00 10,1 6,7 11,3 3 1 4 2 WSW 1026,6 50 32 0,0
20.04.2019 07:00:00 8,1 5,2 4,9 1 1 8 4 WNW 1026,8 - 0 0,0
20.04.2019 06:00:00 7,8 5,0 5,0 5 3 9 5 NW 1026,6 - 0 0,0
20.04.2019 05:00:00 8,8 5,4 6,5 3 2 6 4 W 1026,4 - 0 0,0
20.04.2019 04:00:00 10,7 6,1 7,3 7 4 8 5 WNW 1026,0 - 0 0,0
20.04.2019 03:00:00 11,2 6,4 9,3 3 1 5 3 WSW 1025,9 - 0 0,0
20.04.2019 02:00:00 11,6 6,3 8,5 1 1 5 3 E 1026,2 - 0 0,0
20.04.2019 01:00:00 12,4 6,0 8,7 4 2 7 4 SSW 1026,2 - 0 0,0
20.04.2019 00:00:00 12,9 6,2 9,9 6 3 8 5 NW 1026,3 - 0 0,0
19.04.2019 23:00:00 14,3 5,5 10,1 4 2 7 4 SSE 1025,9 45 0 0,0
19.04.2019 22:00:00 15,3 5,2 10,9 4 2 19 10 N 1025,5 - 0 0,0
19.04.2019 21:00:00 17,4 4,3 13,8 7 4 13 7 N 1025,0 - 0 0,0
19.04.2019 20:00:00 19,7 2,6 16,8 6 3 8 5 ENE 1023,8 45 0 0,0
19.04.2019 19:00:00 20,5 2,3 21,2 3 2 9 5 N 1023,4 - 7 0,0
19.04.2019 18:00:00 20,5 4,5 20,2 7 4 18 10 NE 1023,5 - 0 0,0
19.04.2019 17:00:00 21,0 0,7 22,6 13 7 25 14 ENE 1023,3 40 30 0,0
19.04.2019 16:00:00 21,3 2,9 24,0 13 7 24 13 NE 1023,3 - 41 0,0
19.04.2019 15:00:00 21,4 4,9 28,9 16 8 22 12 NE 1023,9 - 57 0,0
19.04.2019 14:00:00 20,5 4,0 26,8 9 5 16 9 E 1024,2 35 60 0,0
19.04.2019 13:00:00 19,8 6,8 26,3 11 6 16 8 E 1024,9 - 60 0,0
19.04.2019 12:00:00 18,5 6,8 25,1 7 4 15 8 ENE 1025,5 - 60 0,0
19.04.2019 11:00:00 16,8 7,0 23,8 3 2 10 6 NNE 1026,0 35 60 0,0
19.04.2019 10:00:00 13,9 6,2 16,8 3 1 7 4 N 1026,3 - 6 0,0
19.04.2019 09:00:00 12,3 6,7 14,5 1 1 4 2 WSW 1026,2 - 3 0,0
19.04.2019 08:00:00 10,0 6,9 9,5 2 1 6 3 NW 1026,3 35 0 0,0
19.04.2019 07:00:00 8,0 5,6 5,4 2 1 6 3 W 1025,7 - 0 0,0
19.04.2019 06:00:00 7,8 6,1 4,4 1 0 6 3 NE 1025,0 - 0 0,0
19.04.2019 05:00:00 8,8 6,2 5,6 3 2 6 3 SW 1024,4 - 0 0,0
19.04.2019 04:00:00 9,2 6,3 6,2 2 1 6 3 W 1023,9 - 0 0,0
19.04.2019 03:00:00 10,2 6,9 6,3 5 3 7 4 N 1023,6 - 0 0,0
19.04.2019 02:00:00 10,9 7,5 7,6 2 1 3 1 NNW 1023,3 - 0 0,0
19.04.2019 01:00:00 12,0 6,9 8,6 2 1 11 6 NNW 1022,9 - 0 0,0
19.04.2019 00:00:00 13,7 7,0 9,5 6 3 9 5 WSW 1021,9 - 0 0,0
18.04.2019 23:00:00 15,3 7,3 12,0 3 2 13 7 SW 1021,0 30 0 0,0
18.04.2019 22:00:00 16,2 7,2 13,9 4 2 15 8 SW 1020,3 - 0 0,0
18.04.2019 21:00:00 19,7 4,8 16,5 3 2 11 6 W 1018,9 - 0 0,0
18.04.2019 20:00:00 18,9 6,7 16,5 5 3 6 4 WNW 1018,5 30 2 0,0
18.04.2019 19:00:00 20,4 6,2 21,2 1 1 8 4 W 1017,9 - 16 0,0
18.04.2019 18:00:00 20,0 5,1 20,8 4 2 14 8 NNE 1017,8 - 0 0,0
18.04.2019 17:00:00 20,2 3,4 21,6 10 5 17 9 E 1017,6 30 0 0,0
18.04.2019 16:00:00 20,4 4,2 23,4 8 5 21 12 NNE 1017,8 - 40 0,0
18.04.2019 15:00:00 19,4 4,5 24,4 14 8 26 14 NE 1018,3 - 59 0,0
18.04.2019 14:00:00 19,0 4,9 24,1 12 6 25 13 NE 1018,8 30 60 0,0
18.04.2019 13:00:00 17,6 4,9 23,8 13 7 24 13 NE 1019,5 - 60 0,0
18.04.2019 12:00:00 16,5 5,9 22,3 16 9 23 12 ENE 1020,1 - 60 0,0
18.04.2019 11:00:00 15,6 7,0 21,5 10 5 15 8 ENE 1020,6 25 60 0,0
18.04.2019 10:00:00 13,0 5,5 19,7 6 3 16 8 ENE 1021,3 - 60 0,0
18.04.2019 09:00:00 11,5 5,5 15,2 7 4 11 6 E 1021,5 - 60 0,0
18.04.2019 08:00:00 8,3 5,4 9,9 3 2 6 3 NNE 1021,8 25 23 0,0
18.04.2019 07:00:00 7,1 5,2 4,0 3 2 5 3 NNE 1021,5 - 0 0,0
18.04.2019 06:00:00 7,6 5,2 4,7 3 2 8 4 N 1021,1 - 0 0,0
18.04.2019 05:00:00 7,5 5,1 5,6 1 1 5 3 N 1021,2 - 0 0,0
18.04.2019 04:00:00 7,1 4,5 4,0 1 1 4 2 SSE 1021,4 - 0 0,0
18.04.2019 03:00:00 7,7 4,6 4,6 2 1 5 3 W 1021,3 - 0 0,0
18.04.2019 02:00:00 7,9 4,7 5,8 3 2 8 4 WNW 1021,1 - 0 0,0
18.04.2019 01:00:00 8,7 5,4 5,3 4 2 5 3 ENE 1020,7 - 0 0,0
18.04.2019 00:00:00 10,0 5,0 6,8 3 1 8 4 W 1020,0 - 0 0,0
17.04.2019 23:00:00 10,4 5,3 6,7 1 1 5 3 WNW 1019,7 40 0 0,0
17.04.2019 22:00:00 12,4 5,3 7,3 1 1 7 4 SW 1019,0 - 0 0,0
17.04.2019 21:00:00 13,4 4,3 8,8 3 1 10 5 NNW 1018,3 - 0 0,0
17.04.2019 20:00:00 16,0 4,7 14,0 7 4 16 9 NNE 1017,3 40 28 0,0
17.04.2019 19:00:00 17,4 4,2 18,0 9 5 16 9 NNE 1017,1 - 60 0,0
17.04.2019 18:00:00 17,9 3,2 22,0 9 5 14 8 NE 1017,3 - 60 0,0
17.04.2019 17:00:00 17,8 4,1 23,7 9 5 19 11 NE 1017,6 35 60 0,0
17.04.2019 16:00:00 17,1 5,9 23,0 10 6 22 12 NE 1018,4 - 60 0,0
17.04.2019 15:00:00 16,4 5,0 23,1 15 8 22 12 ENE 1019,1 - 60 0,0
17.04.2019 14:00:00 15,8 6,6 22,9 12 6 22 12 E 1019,6 20 60 0,0
17.04.2019 13:00:00 14,7 6,4 22,0 11 6 24 13 NE 1020,1 - 60 0,0
17.04.2019 12:00:00 12,7 7,1 20,0 12 6 18 10 E 1020,9 - 60 0,0
17.04.2019 11:00:00 11,8 7,2 19,1 8 4 16 9 E 1021,7 15 60 0,0
17.04.2019 10:00:00 9,9 6,7 16,4 8 4 13 7 NE 1022,1 - 60 0,0
17.04.2019 09:00:00 8,4 6,6 12,7 3 2 6 3 NNE 1022,4 - 60 0,0
17.04.2019 08:00:00 5,7 4,7 6,4 4 2 6 3 NW 1022,7 12 25 0,0
17.04.2019 07:00:00 3,9 3,1 1,5 3 2 5 3 NW 1022,5 - 0 0,0
17.04.2019 06:00:00 3,9 2,9 1,5 0 0 8 4 W 1022,2 - 0 0,0
17.04.2019 05:00:00 4,9 4,3 1,9 1 1 8 5 ENE 1022,0 - 0 0,0
17.04.2019 04:00:00 5,2 4,3 2,5 3 1 5 3 W 1022,2 - 0 0,0
17.04.2019 03:00:00 5,8 5,1 3,1 3 2 8 4 WSW 1022,2 - 0 0,0
17.04.2019 02:00:00 7,2 5,9 4,8 1 1 6 3 N 1022,1 - 0 0,0
17.04.2019 01:00:00 7,3 6,1 5,6 2 1 6 3 NW 1022,3 - 0 0,0
17.04.2019 00:00:00 7,7 6,8 4,9 4 2 8 4 NNE 1022,1 - 0 0,0
16.04.2019 23:00:00 8,9 7,0 7,6 4 2 8 4 NNW 1021,8 45 0 0,0
16.04.2019 22:00:00 9,9 7,3 8,6 4 2 8 5 N 1021,4 - 0 0,0
16.04.2019 21:00:00 10,8 7,4 9,4 5 3 11 6 W 1021,0 - 0 0,0
16.04.2019 20:00:00 11,1 7,3 10,0 10 5 24 13 SW 1020,3 35 0 0,0
16.04.2019 19:00:00 11,3 7,2 10,5 18 10 24 13 SW 1020,1 - 0 0,0
16.04.2019 18:00:00 11,2 7,9 10,6 17 9 35 19 SW 1019,9 - 0 0,1
16.04.2019 17:00:00 11,8 6,7 11,6 27 14 39 21 SW 1019,6 17 0 0,0
16.04.2019 16:00:00 12,2 7,5 13,4 15 8 29 16 SW 1019,6 - 0 0,0
16.04.2019 15:00:00 12,3 5,9 14,1 22 12 31 17 SW 1019,7 - 0 0,0
16.04.2019 14:00:00 11,8 6,6 11,8 21 11 36 19 SW 1019,4 17 0 0,0
16.04.2019 13:00:00 12,2 5,1 13,1 27 14 39 21 SW 1019,4 - 0 0,0
16.04.2019 12:00:00 12,2 4,7 13,0 20 11 36 20 WSW 1019,1 - 0 0,0
16.04.2019 11:00:00 11,7 6,1 13,4 16 8 24 13 SSW 1019,1 20 0 0,0
16.04.2019 10:00:00 10,4 6,0 11,8 8 4 17 9 SW 1019,3 - 0 0,0
16.04.2019 09:00:00 10,1 6,0 10,0 10 5 14 8 WSW 1019,2 - 0 0,0
16.04.2019 08:00:00 8,4 4,3 7,6 2 1 8 4 NNE 1019,2 16 0 0,0
16.04.2019 07:00:00 7,9 3,6 6,6 3 2 7 4 WNW 1018,9 - 0 0,0
16.04.2019 06:00:00 6,8 3,5 5,9 5 3 8 4 NNW 1018,8 - 0 0,0
16.04.2019 05:00:00 6,9 2,9 5,6 4 2 9 5 W 1018,8 - 0 0,0
16.04.2019 04:00:00 6,2 3,0 4,9 6 4 10 5 W 1018,7 - 0 0,0
16.04.2019 03:00:00 6,7 2,9 4,8 1 1 6 3 SW 1018,3 - 0 0,0
16.04.2019 02:00:00 5,7 2,5 2,8 2 1 4 2 NW 1018,4 - 0 0,0
16.04.2019 01:00:00 5,8 2,8 3,3 3 2 4 2 W 1018,4 - 0 0,0
16.04.2019 00:00:00 7,2 2,5 3,9 3 2 6 4 WSW 1017,9 - 0 0,0
15.04.2019 23:00:00 6,9 2,5 3,2 4 2 7 4 NNW 1017,7 25 0 0,0
15.04.2019 22:00:00 8,4 3,0 4,4 4 2 10 5 NNE 1017,3 - 0 0,0
15.04.2019 21:00:00 10,1 3,1 5,2 2 1 6 4 E 1016,6 - 0 0,0
15.04.2019 20:00:00 12,7 1,0 9,1 3 2 16 9 NNW 1015,5 23 32 0,0
15.04.2019 19:00:00 13,7 2,0 15,3 11 6 19 10 NNE 1015,2 - 60 0,0
15.04.2019 18:00:00 14,1 -0,2 17,6 13 7 20 11 ENE 1015,5 - 60 0,0
15.04.2019 17:00:00 13,7 0,7 19,5 12 6 24 13 NNE 1016,1 18 60 0,0
15.04.2019 16:00:00 12,8 0,6 18,2 16 9 25 13 ENE 1017,0 - 60 0,0
15.04.2019 15:00:00 12,7 1,4 19,2 14 8 23 12 NE 1018,1 - 60 0,0
15.04.2019 14:00:00 11,3 -1,0 18,1 11 6 22 12 NE 1019,0 18 60 0,0
15.04.2019 13:00:00 9,5 -1,4 17,0 15 8 29 16 NE 1020,1 - 60 0,0
15.04.2019 12:00:00 8,4 1,2 15,1 16 9 26 14 NE 1021,0 - 60 0,0
15.04.2019 11:00:00 7,0 1,2 12,8 16 9 26 14 ENE 1021,6 10 58 0,0
15.04.2019 10:00:00 6,8 1,6 11,1 16 8 30 16 NE 1021,7 - 20 0,0
15.04.2019 09:00:00 5,1 1,0 5,9 14 8 24 13 NE 1022,2 - 0 0,0
15.04.2019 08:00:00 4,3 0,7 4,4 7 4 13 7 NE 1022,2 10 0 0,0
15.04.2019 07:00:00 4,3 0,9 3,8 9 5 14 8 NE 1021,8 - 0 0,0
15.04.2019 06:00:00 4,3 0,6 3,5 2 1 8 4 N 1021,7 - 0 0,0
15.04.2019 05:00:00 4,2 1,1 3,4 3 2 10 5 N 1021,7 - 0 0,0
15.04.2019 04:00:00 4,2 1,2 3,0 5 3 10 6 NNE 1021,9 - 0 0,0
15.04.2019 03:00:00 4,4 0,9 2,9 6 3 22 12 NE 1021,8 - 0 0,0
15.04.2019 02:00:00 4,9 1,1 3,8 14 8 23 13 NE 1021,9 - 0 0,0
15.04.2019 01:00:00 4,7 0,5 2,9 10 5 21 12 N 1021,9 - 0 0,0
15.04.2019 00:00:00 4,4 -0,5 1,7 9 5 27 14 N 1021,7 - 0 0,0
14.04.2019 23:00:00 4,6 -1,0 2,8 13 7 29 16 N 1021,2 25 0 0,0
14.04.2019 22:00:00 5,4 -1,0 3,6 19 10 41 22 NNE 1021,0 - 0 0,0
14.04.2019 21:00:00 6,2 -1,4 4,4 24 13 48 26 NNE 1020,5 - 0 0,0
14.04.2019 20:00:00 7,1 -1,6 5,3 18 10 46 25 NNE 1019,7 25 26 0,0
14.04.2019 19:00:00 8,1 -0,8 9,1 29 16 47 25 NE 1018,1 - 59 0,0
14.04.2019 18:00:00 9,6 -1,0 12,5 29 16 44 24 NE 1017,3 - 52 0,0
14.04.2019 17:00:00 10,6 -2,3 15,0 24 13 37 20 NNE 1016,7 30 60 0,0
14.04.2019 16:00:00 9,9 -3,6 15,6 23 12 36 19 NE 1017,0 - 60 0,0
14.04.2019 15:00:00 9,9 -4,3 16,5 19 11 31 17 NE 1017,1 - 60 0,0
14.04.2019 14:00:00 9,6 -4,8 16,2 15 8 29 16 NE 1017,0 27 60 0,0

tt = Température de l'air
td = dewpoint
tt 5cm = Température de l'air 5cm
ff = Vitesse du vent
fx = gusts
dd = Direction du vent
ppp = reduced air pressure
vv = visibility
sd = Ensoleillement
rr = Quantités de précipitations

stations d'obs. à proximité